TimeEDT,TemperatureF,Dew PointF,Humidity,Sea Level PressureIn,VisibilityMPH,Wind Direction,Wind SpeedMPH,Gust SpeedMPH,PrecipitationIn,Events,Conditions,WindDirDegrees,DateUTC
12:53 AM,82.0,73.0,74,29.98,10.0,SSW,10.4,-,N/A,,Partly Cloudy,210,2013-07-19 04:53:00
1:53 AM,81.0,73.0,77,29.96,10.0,SSW,10.4,-,N/A,,Clear,210,2013-07-19 05:53:00
2:53 AM,80.1,72.0,76,29.94,10.0,SSW,11.5,-,N/A,,Clear,210,2013-07-19 06:53:00
3:53 AM,80.1,72.0,76,29.92,10.0,SSW,10.4,-,N/A,,Clear,210,2013-07-19 07:53:00
4:53 AM,79.0,72.0,79,29.91,10.0,SSW,11.5,-,N/A,,Clear,210,2013-07-19 08:53:00
5:53 AM,79.0,72.0,79,29.91,10.0,South,11.5,-,N/A,,Clear,190,2013-07-19 09:53:00
6:53 AM,79.0,72.0,79,29.91,10.0,SSW,11.5,-,N/A,,Clear,210,2013-07-19 10:53:00
7:53 AM,81.0,73.0,77,29.91,10.0,SSW,13.8,-,N/A,,Clear,210,2013-07-19 11:53:00
8:53 AM,82.9,73.9,74,29.91,10.0,SSW,13.8,-,N/A,,Clear,210,2013-07-19 12:53:00
9:53 AM,84.9,73.9,69,29.91,10.0,SSW,16.1,-,N/A,,Clear,210,2013-07-19 13:53:00
10:53 AM,88.0,73.9,63,29.90,10.0,SW,19.6,25.3,N/A,,Partly Cloudy,220,2013-07-19 14:53:00
11:53 AM,89.1,73.9,61,29.88,10.0,SSW,23.0,28.8,N/A,,Partly Cloudy,210,2013-07-19 15:53:00
12:53 PM,91.9,73.0,54,29.86,10.0,SW,19.6,27.6,N/A,,Scattered Clouds,230,2013-07-19 16:53:00
1:53 PM,93.0,72.0,50,29.84,10.0,SSW,24.2,36.8,N/A,,Scattered Clouds,210,2013-07-19 17:53:00
2:53 PM,93.9,71.1,47,29.80,10.0,SSW,20.7,31.1,N/A,,Scattered Clouds,210,2013-07-19 18:53:00
3:53 PM,95.0,70.0,44,29.78,10.0,SW,23.0,32.2,N/A,,Partly Cloudy,220,2013-07-19 19:53:00
4:53 PM,93.9,71.1,47,29.77,10.0,SW,19.6,-,N/A,,Partly Cloudy,220,2013-07-19 20:53:00
5:53 PM,93.0,71.1,49,29.75,10.0,SSW,17.3,23.0,N/A,,Scattered Clouds,210,2013-07-19 21:53:00
6:53 PM,91.9,70.0,48,29.75,10.0,SSW,18.4,-,N/A,,Scattered Clouds,210,2013-07-19 22:53:00
7:53 PM,90.0,71.1,54,29.75,10.0,SSW,13.8,-,N/A,,Scattered Clouds,210,2013-07-19 23:53:00
8:53 PM,78.1,69.1,74,29.76,10.0,Variable,3.5,-,0.00,,Mostly Cloudy,0,2013-07-20 00:53:00
9:18 PM,80.6,69.8,70,29.77,10.0,South,10.4,-,N/A,Thunderstorm,Thunderstorm,170,2013-07-20 01:18:00
9:44 PM,78.8,71.6,78,29.77,10.0,South,11.5,-,N/A,,Mostly Cloudy,180,2013-07-20 01:44:00
9:53 PM,81.0,71.1,72,29.76,10.0,SW,19.6,27.6,N/A,,Mostly Cloudy,220,2013-07-20 01:53:00
10:53 PM,78.1,70.0,76,29.74,10.0,SW,10.4,-,N/A,,Mostly Cloudy,230,2013-07-20 02:53:00
11:53 PM,78.1,72.0,81,29.74,10.0,South,12.7,-,N/A,,Mostly Cloudy,170,2013-07-20 03:53:00